DW0687 Weather Reports


time (UTC)temp
C
wind
direction
speed
KPH
gust
KPH
rain 1hr
cm
rain 24hr
cm
rain mn
cm
humidity
%
barometer
mb
20260507023011 9 349 0.0 0.0 0.00 0.00 0.00 40 1013.6
20260507022507 9 349 0.0 0.0 0.00 0.00 0.00 39 1013.6
20260507022011 9 349 0.0 0.0 0.00 0.00 0.00 38 1013.7
20260507021519 10 349 0.0 0.0 0.00 0.00 0.00 38 1013.6
20260507021007 10 349 0.0 0.0 0.00 0.00 0.00 37 1013.7
20260507020508 10 349 0.0 0.0 0.00 0.00 0.00 37 1013.7
20260507020035 10 349 0.0 0.0 0.00 0.00 0.00 36 1013.8
20260507015507 10 349 0.0 1.6 0.00 0.00 0.00 36 1013.7
20260507015009 10 349 0.0 1.6 0.00 0.00 0.00 36 1013.6
20260507014526 10 349 0.0 1.6 0.00 0.00 0.00 36 1013.6
20260507014010 11 349 0.0 1.6 0.00 0.00 0.00 36 1013.6
20260507013508 11 349 0.0 4.8 0.00 0.00 0.00 35 1013.6
20260507013044 11 349 0.0 4.8 0.00 0.00 0.00 35 1013.6
20260507012506 11 327 0.0 3.2 0.00 0.00 0.00 35 1013.6
20260507012007 11 326 0.0 3.2 0.00 0.00 0.00 35 1013.6
20260507011514 11 295 0.0 6.4 0.00 0.00 0.00 34 1013.6
20260507011007 11 331 0.0 6.4 0.00 0.00 0.00 33 1013.7
20260507010507 11 31 0.0 4.8 0.00 0.00 0.00 34 1013.7
20260507010026 11 353 0.0 6.4 0.00 0.00 0.00 33 1013.8
20260507005508 12 349 0.0 6.4 0.00 0.00 0.00 33 1013.7
20260507005010 12 31 1.6 8.0 0.00 0.00 0.00 33 1013.7
20260507004524 12 331 1.6 8.0 0.00 0.00 0.00 33 1013.7
20260507004005 12 267 0.0 8.0 0.00 0.00 0.00 33 1013.7
20260507003504 12 85 1.6 6.4 0.00 0.00 0.00 33 1013.8
20260507003006 12 49 1.6 8.0 0.00 0.00 0.00 34 1013.8
20260507002505 12 335 1.6 9.7 0.00 0.00 0.00 32 1013.9
20260507002004 12 12 0.0 9.7 0.00 0.00 0.00 33 1013.9
20260507001514 12 258 3.2 9.7 0.00 0.00 0.00 32 1014.0
20260507001009 12 335 1.6 8.0 0.00 0.00 0.00 32 1014.0
20260507000507 12 16 3.2 8.0 0.00 0.00 0.00 32 1014.0
20260507000019 12 85 1.6 12.9 0.00 0.00 0.00 33 1014.1
20260506235509 12 51 1.6 12.9 0.00 0.00 0.00 33 1014.1
20260506235007 12 66 1.6 12.9 0.00 0.00 0.00 32 1014.1
20260506234528 13 301 3.2 12.9 0.00 0.00 0.00 31 1014.1
20260506234010 13 28 1.6 8.0 0.00 0.00 0.00 31 1014.1
20260506233507 13 6 0.0 11.3 0.00 0.00 0.00 33 1014.1
20260506233027 12 8 1.6 14.5 0.00 0.00 0.00 33 1014.2
20260506232504 13 255 1.6 14.5 0.00 0.00 0.00 31 1014.2
20260506232004 13 30 3.2 12.9 0.00 0.00 0.00 32 1014.2
20260506231508 13 299 3.2 16.1 0.00 0.00 0.00 31 1014.2
20260506231005 13 357 3.2 16.1 0.00 0.00 0.00 31 1014.2
20260506230505 13 305 4.8 12.9 0.00 0.00 0.00 32 1014.2
20260506230014 13 7 1.6 11.3 0.00 0.00 0.00 33 1014.2
20260506225508 13 355 1.6 11.3 0.00 0.00 0.00 34 1014.3
20260506225007 13 357 1.6 11.3 0.00 0.00 0.00 32 1014.4
20260506224519 13 355 1.6 12.9 0.00 0.00 0.00 33 1014.4
20260506224009 13 243 3.2 12.9 0.00 0.00 0.00 31 1014.4
20260506223509 13 41 1.6 12.9 0.00 0.00 0.00 33 1014.6
20260506223024 13 2 1.6 12.9 0.00 0.00 0.00 33 1014.6
20260506222510 13 256 3.2 11.3 0.00 0.00 0.00 32 1014.6
20260506222011 13 355 1.6 11.3 0.00 0.00 0.00 32 1014.6
20260506221525 13 355 1.6 16.1 0.00 0.00 0.00 35 1014.6
20260506221004 13 46 3.2 16.1 0.00 0.00 0.00 31 1014.6
20260506220504 13 76 1.6 12.9 0.00 0.00 0.00 33 1014.7
20260506220022 13 308 1.6 17.7 0.00 0.00 0.00 33 1014.6
20260506215509 13 49 1.6 17.7 0.00 0.00 0.00 35 1014.7
20260506215006 13 49 1.6 12.9 0.00 0.00 0.00 33 1014.7
20260506214517 12 54 1.6 19.3 0.00 0.00 0.00 32 1014.8
20260506214007 13 6 4.8 19.3 0.00 0.00 0.00 32 1014.9
20260506213508 13 306 3.2 14.5 0.00 0.00 0.00 33 1014.9
20260506213023 13 259 1.6 14.5 0.00 0.00 0.00 35 1015.0
20260506212509 13 305 1.6 16.1 0.00 0.00 0.00 34 1015.1
20260506212010 13 254 3.2 16.1 0.00 0.00 0.00 32 1015.1
20260506211528 13 49 1.6 14.5 0.00 0.00 0.00 35 1015.2
20260506211010 12 72 1.6 14.5 0.00 0.00 0.00 36 1015.3
20260506210517 12 284 1.6 9.7 0.00 0.00 0.00 36 1015.4
20260506210011 12 330 1.6 24.1 0.00 0.00 0.00 36 1015.5
20260506205504 12 78 6.4 24.1 0.00 0.00 0.00 35 1015.5
20260506205005 12 17 1.6 9.7 0.00 0.00 0.00 36 1015.6
20260506204514 12 51 1.6 12.9 0.00 0.00 0.00 37 1015.7
20260506204007 12 345 1.6 12.9 0.00 0.00 0.00 36 1015.8
20260506203506 12 62 1.6 17.7 0.00 0.00 0.00 37 1015.9
20260506203017 12 111 1.6 17.7 0.00 0.00 0.00 37 1016.0
20260506202511 12 81 1.6 11.3 0.00 0.00 0.00 37 1015.9
20260506202011 12 251 0.0 12.9 0.00 0.00 0.00 38 1015.9
20260506201532 12 91 1.6 12.9 0.00 0.00 0.00 38 1016.0
20260506201013 12 60 1.6 11.3 0.00 0.00 0.00 39 1016.0
20260506200507 12 43 1.6 14.5 0.00 0.00 0.00 37 1016.0
20260506200038 12 84 3.2 14.5 0.00 0.00 0.00 37 1016.1
20260506195507 12 239 1.6 12.9 0.00 0.00 0.00 39 1016.0
20260506195013 12 26 1.6 14.5 0.00 0.00 0.00 41 1016.0
20260506194511 12 340 1.6 14.5 0.00 0.00 0.00 38 1016.1
20260506194008 12 68 1.6 11.3 0.00 0.00 0.00 38 1016.2
20260506193506 11 5 1.6 11.3 0.00 0.00 0.00 39 1016.3
20260506193014 11 22 1.6 14.5 0.00 0.00 0.00 38 1016.2
20260506192507 11 36 4.8 14.5 0.00 0.00 0.00 37 1016.2
20260506192010 12 63 3.2 16.1 0.00 0.00 0.00 37 1016.2
20260506191522 12 276 3.2 16.1 0.00 0.00 0.00 37 1016.3
20260506191009 12 259 3.2 12.9 0.00 0.00 0.00 37 1016.5
20260506190508 11 70 3.2 11.3 0.00 0.00 0.00 40 1016.3
20260506190026 11 33 1.6 11.3 0.00 0.00 0.00 38 1016.4
20260506185511 11 35 4.8 11.3 0.00 0.00 0.00 38 1016.4
20260506185011 11 7 1.6 12.9 0.00 0.00 0.00 39 1016.4
20260506184528 11 253 3.2 12.9 0.00 0.00 0.00 39 1016.5
20260506184013 11 43 1.6 16.1 0.00 0.00 0.00 42 1016.6
20260506183507 11 40 4.8 16.1 0.00 0.00 0.00 39 1016.6
20260506183013 11 37 1.6 14.5 0.00 0.00 0.00 40 1016.6
20260506182507 11 55 1.6 12.9 0.00 0.00 0.00 44 1016.7
20260506182009 11 35 3.2 11.3 0.00 0.00 0.00 45 1016.7
20260506181521 11 35 3.2 11.3 0.00 0.00 0.00 39 1016.9
20260506181008 11 249 3.2 11.3 0.00 0.00 0.00 41 1016.8
20260506180510 11 24 1.6 11.3 0.00 0.00 0.00 40 1017.0
20260506180023 11 45 3.2 12.9 0.00 0.00 0.00 42 1016.9
20260506175510 11 54 3.2 12.9 0.00 0.00 0.00 41 1017.0
20260506175008 11 326 1.6 12.9 0.00 0.00 0.00 46 1017.2
20260506174525 10 81 1.6 12.9 0.00 0.00 0.00 43 1017.3
20260506174010 11 345 3.2 16.1 0.00 0.00 0.00 41 1017.5
20260506173507 11 8 3.2 16.1 0.00 0.00 0.00 43 1017.5
20260506173025 10 2 3.2 12.9 0.00 0.00 0.00 42 1017.5
20260506172507 10 312 3.2 12.9 0.00 0.00 0.00 43 1017.4
20260506172006 10 75 1.6 19.3 0.00 0.00 0.00 41 1017.4
20260506171515 10 239 3.2 19.3 0.00 0.00 0.00 41 1017.5
20260506171008 10 45 3.2 14.5 0.00 0.00 0.00 45 1017.5
20260506170509 10 89 1.6 16.1 0.00 0.00 0.00 42 1017.7
20260506170020 10 38 1.6 16.1 0.00 0.00 0.00 43 1017.7
20260506165509 10 352 3.2 16.1 0.00 0.00 0.00 44 1017.7
20260506165010 10 301 3.2 12.9 0.00 0.00 0.00 43 1017.7
20260506164525 10 355 3.2 14.5 0.00 0.00 0.00 43 1017.8
20260506164009 10 45 3.2 14.5 0.00 0.00 0.00 44 1017.8
20260506163511 10 37 1.6 9.7 0.00 0.00 0.00 45 1017.8
20260506163030 10 17 3.2 16.1 0.00 0.00 0.00 44 1017.8
20260506162508 9 255 4.8 16.1 0.00 0.00 0.00 43 1017.9
20260506162011 10 48 3.2 11.3 0.00 0.00 0.00 43 1017.9
20260506161528 10 273 3.2 11.3 0.00 0.00 0.00 46 1018.0
20260506161007 10 8 3.2 11.3 0.00 0.00 0.00 46 1017.9
20260506160508 9 39 3.2 9.7 0.00 0.00 0.00 49 1017.8
20260506160019 9 33 3.2 11.3 0.00 0.00 0.00 46 1017.9
20260506155514 8 35 1.6 11.3 0.00 0.00 0.00 48 1017.9
20260506155003 8 60 3.2 14.5 0.00 0.00 0.00 48 1018.0
20260506154504 8 22 1.6 14.5 0.00 0.00 0.00 49 1018.0
20260506154003 8 335 3.2 9.7 0.00 0.00 0.00 50 1017.9
20260506153503 8 41 1.6 9.7 0.00 0.00 0.00 50 1017.9
20260506153004 8 83 1.6 9.7 0.00 0.00 0.00 51 1018.0
20260506152503 8 45 1.6 9.7 0.00 0.00 0.00 50 1018.0
20260506152006 8 318 1.6 8.0 0.00 0.00 0.00 50 1018.0
20260506151513 8 60 1.6 12.9 0.00 0.00 0.00 52 1018.1
20260506151007 8 22 1.6 12.9 0.00 0.00 0.00 50 1018.1
20260506150507 7 277 0.0 4.8 0.00 0.00 0.00 53 1018.1
20260506150017 7 345 1.6 6.4 0.00 0.00 0.00 53 1018.1
20260506145508 7 54 1.6 6.4 0.00 0.00 0.00 53 1018.1
20260506145007 7 38 1.6 6.4 0.00 0.00 0.00 52 1018.0
20260506144519 7 53 1.6 4.8 0.00 0.00 0.00 53 1018.1
20260506144004 6 37 0.0 4.8 0.00 0.00 0.00 53 1018.2
20260506143504 6 20 0.0 4.8 0.00 0.00 0.00 56 1018.2
20260506143006 6 41 0.0 6.4 0.00 0.00 0.00 55 1018.2
20260506142504 6 254 0.0 6.4 0.00 0.00 0.00 55 1018.1
20260506142003 6 29 0.0 4.8 0.00 0.00 0.00 56 1018.2
20260506141508 6 43 1.6 4.8 0.00 0.00 0.00 55 1018.2
20260506141007 6 52 0.0 4.8 0.00 0.00 0.00 61 1018.1
20260506140508 6 70 0.0 4.8 0.00 0.00 0.00 57 1018.1
20260506140012 5 345 0.0 3.2 0.00 0.00 0.00 60 1018.1
20260506135507 5 6 0.0 1.6 0.00 0.00 0.00 63 1018.0
20260506135008 5 20 0.0 0.0 0.00 0.00 0.00 65 1018.1
20260506134517 5 20 0.0 0.0 0.00 0.00 0.00 64 1018.2
20260506134008 5 20 0.0 0.0 0.00 0.00 0.00 64 1018.2
20260506133509 4 20 0.0 0.0 0.00 0.00 0.00 64 1018.2
20260506133024 3 20 0.0 0.0 0.00 0.00 0.00 67 1018.2
20260506132503 3 26 0.0 0.0 0.00 0.00 0.00 71 1018.1
20260506132008 2 39 0.0 0.0 0.00 0.00 0.00 73 1018.0
20260506131506 2 39 0.0 0.0 0.00 0.00 0.00 75 1018.0
20260506131004 1 39 0.0 0.0 0.00 0.00 0.00 76 1017.9
20260506130504 1 39 0.0 0.0 0.00 0.00 0.00 78 1017.9
20260506130014 1 39 0.0 1.6 0.00 0.00 0.00 79 1017.8
20260506125506 0 39 0.0 1.6 0.00 0.00 0.00 80 1017.8
20260506125006 0 41 0.0 0.0 0.00 0.00 0.00 81 1017.8
20260506124514 0 41 0.0 0.0 0.00 0.00 0.00 82 1017.7
20260506124007 0 41 0.0 0.0 0.00 0.00 0.00 82 1017.8
20260506123507 -1 41 0.0 0.0 0.00 0.00 0.00 83 1017.7
20260506123021 -1 41 0.0 0.0 0.00 0.00 0.00 83 1017.6
20260506122510 -1 41 0.0 0.0 0.00 0.00 0.00 82 1017.6
20260506122009 -1 41 0.0 0.0 0.00 0.00 0.00 82 1017.5
20260506121521 -1 41 0.0 0.0 0.00 0.00 0.00 83 1017.4
20260506121003 -2 41 0.0 0.0 0.00 0.00 0.00 83 1017.4
20260506120504 -2 41 0.0 0.0 0.00 0.00 0.00 83 1017.4
20260506120008 -2 41 0.0 0.0 0.00 0.00 0.00 82 1017.4
20260506115506 -2 41 0.0 0.0 0.00 0.00 0.00 82 1017.3
20260506115007 -2 41 0.0 0.0 0.00 0.00 0.00 81 1017.1
20260506114512 -2 41 0.0 0.0 0.00 0.00 0.00 81 1016.8
20260506114006 -2 41 0.0 0.0 0.00 0.00 0.00 81 1016.8
20260506113507 -2 41 0.0 0.0 0.00 0.00 0.00 80 1016.8
20260506113017 -2 41 0.0 0.0 0.00 0.00 0.00 80 1016.8
20260506112506 -2 41 0.0 0.0 0.00 0.00 0.00 80 1016.7
20260506112008 -2 41 0.0 0.0 0.00 0.00 0.00 80 1016.7
20260506111520 -2 41 0.0 0.0 0.00 0.00 0.00 80 1016.6
20260506111008 -2 41 0.0 0.0 0.00 0.00 0.00 79 1016.5
20260506110510 -2 41 0.0 0.0 0.00 0.00 0.00 79 1016.5
20260506110027 -2 41 0.0 0.0 0.00 0.00 0.00 79 1016.5
20260506105510 -2 41 0.0 0.0 0.00 0.00 0.00 79 1016.6
20260506105004 -2 41 0.0 0.0 0.00 0.00 0.00 79 1016.4
20260506104512 -2 41 0.0 0.0 0.00 0.00 0.00 79 1016.4
20260506104005 -2 41 0.0 0.0 0.00 0.00 0.00 78 1016.4
20260506103507 -2 41 0.0 0.0 0.00 0.00 0.00 78 1016.3
20260506103025 -2 41 0.0 0.0 0.00 0.00 0.00 78 1016.3
20260506102509 -2 41 0.0 0.0 0.00 0.00 0.00 78 1016.3
20260506102007 -2 41 0.0 0.0 0.00 0.00 0.00 78 1016.3
20260506101520 -2 41 0.0 0.0 0.00 0.00 0.00 78 1016.3
20260506101008 -1 41 0.0 0.0 0.00 0.00 0.00 77 1016.2
20260506100508 -1 41 0.0 0.0 0.00 0.00 0.00 77 1016.2
20260506100025 -1 41 0.0 0.0 0.00 0.00 0.00 78 1016.1
20260506095510 -1 41 0.0 0.0 0.00 0.00 0.00 78 1016.1
20260506095009 -2 41 0.0 0.0 0.00 0.00 0.00 78 1016.2
20260506094534 -2 41 0.0 0.0 0.00 0.00 0.00 77 1016.1
20260506094010 -1 41 0.0 0.0 0.00 0.00 0.00 77 1016.1
20260506093504 -1 41 0.0 0.0 0.00 0.00 0.00 76 1016.0
20260506093012 -1 41 0.0 0.0 0.00 0.00 0.00 77 1015.9
20260506092504 -1 41 0.0 0.0 0.00 0.00 0.00 77 1016.0
20260506092008 -1 41 0.0 0.0 0.00 0.00 0.00 77 1016.0
20260506091516 -1 41 0.0 0.0 0.00 0.00 0.00 76 1016.1
20260506091010 -1 41 0.0 0.0 0.00 0.00 0.00 76 1016.1
20260506090507 -1 41 0.0 0.0 0.00 0.00 0.00 76 1015.9
20260506090021 -1 41 0.0 0.0 0.00 0.00 0.00 76 1015.9
20260506085508 -1 41 0.0 0.0 0.00 0.00 0.00 75 1015.9
20260506085008 -1 41 0.0 0.0 0.00 0.00 0.00 75 1015.9
20260506084522 -1 41 0.0 0.0 0.00 0.00 0.00 75 1015.8
20260506084009 -1 41 0.0 0.0 0.00 0.00 0.00 75 1015.9
20260506083509 -1 41 0.0 0.0 0.00 0.00 0.00 75 1015.9
20260506083029 -1 41 0.0 0.0 0.00 0.00 0.00 75 1015.9
20260506082510 -1 41 0.0 0.0 0.00 0.00 0.00 75 1015.7
20260506082006 -1 41 0.0 0.0 0.00 0.00 0.00 74 1015.7
20260506081511 0 41 0.0 0.0 0.00 0.00 0.00 74 1015.7
20260506081007 0 41 0.0 0.0 0.00 0.00 0.00 73 1015.6
20260506080508 0 41 0.0 0.0 0.00 0.00 0.00 73 1015.5
20260506073514 0 41 0.0 0.0 0.00 0.00 0.00 72 1015.2
20260506073024 0 41 0.0 0.0 0.00 0.00 0.00 72 1015.2
20260506072509 0 41 0.0 0.0 0.00 0.00 0.00 73 1015.1
20260506072008 0 41 0.0 0.0 0.00 0.00 0.00 73 1015.1
20260506071526 0 41 0.0 0.0 0.00 0.00 0.00 73 1015.1
20260506071009 0 41 0.0 0.0 0.00 0.00 0.00 73 1015.2
20260506070506 0 41 0.0 0.0 0.00 0.00 0.00 73 1015.5
20260506062505 0 41 0.0 0.0 0.00 0.00 0.00 71 1015.7
20260506062003 0 41 0.0 0.0 0.00 0.00 0.00 70 1015.7
20260506061510 0 41 0.0 0.0 0.00 0.00 0.00 69 1015.7
20260506061012 0 41 0.0 0.0 0.00 0.00 0.00 70 1015.6
20260506060504 0 41 0.0 0.0 0.00 0.00 0.00 69 1015.5
20260506051002 1 41 0.0 0.0 0.00 0.00 0.00 66 1014.9
20260506050503 1 41 0.0 0.0 0.00 0.00 0.00 65 1014.9
20260506045007 1 41 0.0 0.0 0.00 0.00 0.00 63 1015.0
20260506044512 2 41 0.0 1.6 0.00 0.00 0.00 64 1015.0
20260506044005 2 41 0.0 1.6 0.00 0.00 0.00 64 1015.0
20260506043505 2 41 0.0 1.6 0.00 0.00 0.00 64 1015.0
20260506043014 2 41 0.0 1.6 0.00 0.00 0.00 64 1015.0
20260506042506 2 41 0.0 0.0 0.00 0.00 0.00 63 1015.0
20260506042007 2 41 0.0 0.0 0.00 0.00 0.00 63 1014.9
20260506041509 2 41 0.0 0.0 0.00 0.00 0.00 62 1015.0
20260506041007 2 41 0.0 0.0 0.00 0.00 0.00 61 1015.1
20260506040503 2 41 0.0 0.0 0.00 0.00 0.00 61 1015.2
20260506040014 2 41 0.0 0.0 0.00 0.00 0.00 60 1015.2
20260506035507 2 41 0.0 0.0 0.00 0.00 0.00 60 1015.2
20260506035008 2 41 0.0 0.0 0.00 0.00 0.00 60 1015.1
20260506034510 3 41 0.0 0.0 0.00 0.00 0.00 59 1015.1
20260506034008 3 41 0.0 0.0 0.00 0.00 0.00 59 1015.1
20260506033506 3 41 0.0 0.0 0.00 0.00 0.00 58 1015.0
20260506033009 3 41 0.0 0.0 0.00 0.00 0.00 57 1014.9
20260506032506 3 41 0.0 0.0 0.00 0.00 0.00 57 1014.9
20260506032007 3 41 0.0 1.6 0.00 0.00 0.00 56 1014.9
20260506031517 4 41 0.0 1.6 0.00 0.00 0.00 56 1014.7
20260506031004 4 41 0.0 1.6 0.00 0.00 0.00 56 1014.9
20260506030504 4 39 0.0 0.0 0.00 0.00 0.00 55 1014.9
20260506030020 5 39 0.0 0.0 0.00 0.00 0.00 54 1014.8
20260506025503 5 39 0.0 0.0 0.00 0.00 0.00 54 1014.8
20260506025006 5 39 0.0 0.0 0.00 0.00 0.00 53 1014.9
20260506024514 5 39 0.0 3.2 0.00 0.00 0.00 52 1014.8
20260506024007 5 39 0.0 3.2 0.00 0.00 0.00 51 1014.6
20260506023510 5 39 0.0 3.2 0.00 0.00 0.00 51 1014.4